Flag for Senegal Weather past 2 weeks in Dakar, Senegal

79 °F


Feels Like: 80 °F
Forecast: N/A
Wind: 13 mph from North

Location: Dakar / Yoff

Current Time: Nov 29, 2015 at 6:00:04 PM

Latest Report: Nov 29, 2015 at 5:30 PM

Visibility: 10 mi

Pressure: 29.95 "Hg

Humidity: 51%

Dew point: 59 °F

Location of DakarLocation

Historic Weather in Dakar — Graph


Dakar temperature yesterday

Maximum temperature yesterday: 84 °F (at 11:00 AM)
Minimum temperature yesterday: 75 °F (at 12:00 AM)
Average temperature yesterday: 78 °F

Past Weeks' High & Low Weather Summary

High95 °F (Nov 15, 2:00 PM)94% (Nov 15, 5:00 AM)30.04 "Hg (Nov 15, 5:00 AM)
Low73 °F (Nov 16, 1:00 AM)16% (Nov 16, 11:30 AM)29.77 "Hg (Nov 18, 3:00 PM)
Average80 °F58%29.88 "Hg
* Reported Nov 14 5:00 PM — Nov 29 5:00 PM, Dakar, Weather by CustomWeather, © 2015

Note: Actual official high and low records may vary slightly from our data, if they occured in-between our weather recording intervals... More about our weather records


Dakar weather history for previous 24 hours

Time TempWeatherWind HumidityBarometerVisibility
5:00 PM
Sun, Nov 29
81 °FSunny.14 mph51%29.95 "Hg10 mi
4:30 PM81 °FSunny.15 mph48%29.95 "Hg10 mi
4:00 PM82 °FSunny.14 mph45%29.95 "Hg10 mi
3:30 PM82 °FSunny.13 mph45%29.95 "Hg10 mi
3:00 PM82 °FPassing clouds.14 mph45%29.95 "HgN/A
2:30 PM81 °FSunny.14 mph42%29.95 "Hg10 mi
2:00 PM81 °FPassing clouds.14 mph42%29.98 "HgN/A
1:30 PM81 °FPassing clouds.14 mph42%29.98 "HgN/A
1:00 PM81 °FSunny.15 mph45%30.01 "Hg10 mi
12:30 PM79 °FSunny.15 mph54%30.01 "Hg10 mi
12:00 PM79 °FPassing clouds.14 mph51%30.01 "HgN/A
11:30 AM79 °FSunny.14 mph54%30.01 "Hg10 mi
11:00 AM79 °FSunny.13 mph51%30.04 "Hg10 mi
10:30 AM79 °FSunny.15 mph51%30.04 "Hg10 mi
10:00 AM79 °FSunny.15 mph51%30.01 "Hg10 mi
9:30 AM77 °FSunny.14 mph54%30.01 "Hg10 mi
9:00 AM77 °FSunny.13 mph54%30.01 "Hg10 mi
8:30 AM77 °FSunny.12 mph54%29.98 "Hg10 mi
8:00 AM77 °FSunny.13 mph51%29.98 "Hg10 mi
6:30 AM77 °FClear.14 mph54%29.95 "Hg10 mi
6:00 AM77 °FClear.15 mph57%29.95 "Hg10 mi
5:00 AM77 °FClear.14 mph57%29.92 "Hg10 mi
4:30 AM77 °FClear.15 mph54%29.92 "Hg10 mi
4:00 AM77 °FClear.12 mph57%29.92 "Hg10 mi
3:30 AM77 °FClear.12 mph61%29.92 "Hg10 mi
3:00 AM77 °FClear.13 mph61%29.92 "Hg10 mi
2:30 AM77 °FClear.12 mph65%29.95 "Hg10 mi
2:00 AM77 °FClear.12 mph65%29.95 "Hg10 mi
1:30 AM77 °FClear.12 mph65%29.95 "Hg10 mi
1:00 AM77 °FClear.12 mph69%29.95 "Hg10 mi
12:30 AM77 °FPassing clouds.13 mph69%29.95 "HgN/A
12:00 AM77 °FClear.13 mph69%29.95 "Hg10 mi
11:30 PM
Sat, Nov 28
77 °FClear.12 mph69%29.95 "Hg10 mi
11:00 PM77 °FClear.12 mph69%29.95 "Hg10 mi
10:00 PM77 °FClear.13 mph74%29.95 "Hg10 mi
9:00 PM77 °FClear.10 mph74%29.92 "Hg6 mi
8:30 PM77 °FClear.10 mph74%29.92 "Hg6 mi
8:00 PM77 °FClear.10 mph74%29.89 "Hg6 mi
7:30 PM77 °FClear.10 mph74%29.89 "Hg6 mi
7:00 PM77 °FClear.10 mph74%29.86 "Hg6 mi
6:30 PM77 °FClear.10 mph69%29.86 "Hg6 mi
6:00 PM79 °FClear.10 mph61%29.86 "Hg6 mi
Weather by CustomWeather, © 2015

See weather overviewHow to use our weather pages